Louisville Bowman, KY

7:16 AM EDT on October 21, 2019 (GMT -0400)
Bowman

Weather History for KLOU - May, 2019

Change the Weather History Date:

Tuesday, May 7, 2019

  Actual Average Record
Temperature  
Mean Temperature 67 °F 64 °F  
Max Temperature 80 °F 74 °F 88 °F (2015)
Min Temperature 53 °F 54 °F 36 °F (1989)
Degree Days  
Heating Degree Days 0 3  
Month to date heating degree days 7 28  
Since 1 July heating degree days 4061 4219  
Cooling Degree Days 2 2  
Month to date cooling degree days 18 13  
Year to date cooling degree days 35 47  
Growing Degree Days 16 (Base 50)    
Moisture  
Dew Point 53 °F    
Average Humidity 66    
Maximum Humidity 93    
Minimum Humidity 39    
Precipitation  
Precipitation T in 0.18 in 4.60 in (1961)
Month to date precipitation 1.79 1.29  
Year to date precipitation 25.20 16.09  
Sea Level Pressure  
Sea Level Pressure 30.08 in    
Wind  
Wind Speed 2 mph (WNW)    
Max Wind Speed 12 mph    
Max Gust Speed 13 mph    
Visibility 10 miles    
Events Rain    
T = Trace of Precipitation, MM = Missing Value Source: NWS Daily Summary

Daily Weather History Graph

Daily Weather History Graph

Search for Another Location

Airport or City:

Astronomy

May. 07, 2019 Rise Set
Actual Time 6:39 AM EDT 8:39 PM EDT
Civil Twilight 6:10 AM EDT 9:08 PM EDT
Nautical Twilight 5:35 AM EDT 9:43 PM EDT
Astronomical Twilight 4:57 AM EDT 10:21 PM EDT
Moon 8:46 AM EDT (5/7) 11:38 PM EDT (5/7)
Length of Visible Light 14h 57m
Length of Day
13h 59m
Waxing Crescent, 8% of the Moon is Illuminated
May 7
Waxing Crescent
May 11
First Quarter
May 18
Full
May 26
Last Quarter
Jun 3
New

Hourly Weather History & Observations

Time (EDT) Temp. Dew Point Humidity Pressure Visibility Wind Dir Wind Speed Gust Speed Precip Events Conditions
12:53 AM 64.0 °F 54.0 °F 70% 30.06 in 10.0 mi Calm Calm - N/A   Clear
1:53 AM 57.9 °F 54.0 °F 87% 30.06 in 10.0 mi WNW 3.5 mph - N/A   Clear
2:53 AM 57.9 °F 53.1 °F 84% 30.05 in 10.0 mi Calm Calm - N/A   Clear
3:53 AM 55.0 °F 52.0 °F 89% 30.07 in 10.0 mi Calm Calm - N/A   Partly Cloudy
4:53 AM 55.9 °F 52.0 °F 87% 30.06 in 10.0 mi Calm Calm - N/A   Clear
5:53 AM 54.0 °F 51.1 °F 90% 30.08 in 10.0 mi Calm Calm - N/A   Clear
6:53 AM 53.1 °F 51.1 °F 93% 30.09 in 10.0 mi Calm Calm - N/A   Clear
7:53 AM 59.0 °F 55.0 °F 87% 30.12 in 10.0 mi Calm Calm - N/A   Clear
8:53 AM 64.0 °F 55.0 °F 73% 30.13 in 10.0 mi Calm Calm - N/A   Clear
9:53 AM 70.0 °F 55.0 °F 59% 30.14 in 10.0 mi South 4.6 mph - N/A   Unknown
10:53 AM 73.0 °F 54.0 °F 51% 30.14 in 10.0 mi SSW 8.1 mph - N/A   Clear
11:53 AM 75.0 °F 54.0 °F 48% 30.12 in 10.0 mi Calm Calm - N/A   Clear
12:53 PM 77.0 °F 52.0 °F 42% 30.10 in 10.0 mi NNW 3.5 mph - N/A   Clear
1:53 PM 78.1 °F 52.0 °F 40% 30.08 in 10.0 mi Calm Calm - N/A   Partly Cloudy
2:53 PM 78.1 °F 52.0 °F 40% 30.08 in 10.0 mi Variable 3.5 mph - N/A   Partly Cloudy
3:53 PM 78.1 °F 54.0 °F 43% 30.08 in 10.0 mi SW 9.2 mph - N/A   Overcast
4:53 PM 79.0 °F 52.0 °F 39% 30.07 in 10.0 mi Calm Calm - N/A   Overcast
5:53 PM 78.1 °F 53.1 °F 42% 30.06 in 10.0 mi NNE 3.5 mph - 0.00 in Rain Light Rain
6:53 PM 78.1 °F 52.0 °F 40% 30.06 in 10.0 mi NW 3.5 mph - 0.00 in   Partly Cloudy
7:53 PM 78.1 °F 51.1 °F 39% 30.05 in 10.0 mi North 3.5 mph - N/A   Clear
8:53 PM 71.1 °F 54.0 °F 55% 30.06 in 10.0 mi Calm Calm - N/A   Clear
9:53 PM 66.0 °F 57.0 °F 73% 30.07 in 10.0 mi Calm Calm - N/A   Clear
10:53 PM 64.0 °F 55.9 °F 75% 30.08 in 10.0 mi Calm Calm - N/A   Clear
11:53 PM 63.0 °F 57.0 °F 81% 30.07 in 10.0 mi Calm Calm - N/A   Clear